Regional Weather Roundup
Issued by NWS Goodland, KS

Home | Current Version | Previous Version | Text Only | Print | Product List | Glossary Off
Versions: 1 2 3 4 5 6 7 8 9 10 11 12 13 14 15 16 17 18 19 20 21 22 23 24 25 26 27 28 29 30 31 32 33 34 35 36 37 38 39 40 41 42 43 44 45 46 47 48 49 50

000
ASUS43 KGLD 021759
RWRGLD

GOODLAND FORECAST AREA HOURLY WEATHER ROUNDUP
NATIONAL WEATHER SERVICE GOODLAND KS
1200 PM MDT TUE JUN 02 2015

...OFFICIAL OBSERVATIONS...

CITY           SKY/WX    TMP DP  RH WIND       PRES   REMARKS
GOODLAND KS    MOSUNNY   79  61  53 S13       29.90F
HILL CITY KS   SUNNY     79  64  60 S13G21    29.88F
IMPERIAL NEB   SUNNY     79  65  62 S10       29.87F
MCCOOK NEB     SUNNY     80  67  64 SE15      29.87F
AKRON CO       MOSUNNY   79  53  40 W9        29.94S
BURLINGTON CO  MOSUNNY   80  61  52 S9        29.93F
LIMON CO       MOSUNNY   79  54  41 CALM      29.99F
$$

...UNOFFICIAL OBSERVATIONS...

CITY           SKY/WX    TMP DP  RH WIND       PRES   REMARKS
COLBY KS       SUNNY     81  64  57 S9G16     29.90F
GOVE KS          N/A     80  32  17 MISG        N/A
NORTON KS      SUNNY     79  59  50 S14G21    29.88S
SHARON SPRINGS   N/A     82  65  56 MISG        N/A
KIT CARSON CO    N/A     78  61  56 MISG        N/A
$$


USA.gov is the U.S. government's official web portal to all federal, state and local government web resources and services.